User: anonymous   Login
Location: Coche
(10.4506°N, 66.9257°W)
Time: 06:49:13
(UTC+00:00)
Language:

YAOGAN 1 - Orbit

View from above orbital plane
View from above orbital plane
View from above satellite
View from above satellite

Ground track
Ground track

The orbit data is extracted from the following two-line orbital elements,

1 29092U 06015A   22147.83523597  .00000677  00000-0  88913-4 0  9995
2 29092  97.8745 176.0799 0001521  90.2403 269.8985 14.83409997869981
Epoch (UTC): 27 May 2022 20:02:44
Eccentricity: 0.0001521
inclination: 97.8745°
perigee height: 617 km
apogee height: 619 km
right ascension of ascending node: 176.0799°
argument of perigee: 90.2403°
revolutions per day: 14.83409997
mean anomaly at epoch: 269.8985°
orbit number at epoch: 86998

The dashed part of the orbit path shows where the satellite is in the earth's shadow,  

DLR